Location: G�ndlingen
(48.0142°N, 7.6396°E)
Time: 18:55:23
(UTC+00:00)

USA 267 - Pass Details

Date: 05 July 2020
Orbit: 1102 x 1106 km, 123.0° (Epoch: 09 August)

Event Time Altitude Azimuth Distance (km) Brightness Sun altitude
Exits shadow 21:33:57 14° 120° (ESE) 2,684 4.8 -14.3°
Maximum altitude 21:39:46 85° 33° (NNE) 1,111 3.3 -14.8°
Drops below altitude 10° 21:46:20 10° 306° (NW) 2,966 6.5 -15.3°
Sets 21:48:49 0° 306° (NW) 3,927 7.3 -15.5°
